[[{"header":{"parameterUnit":"m.s-1","parameterCategory":2,"la1":30.2991,"la2":30.254,"lo1":-89.0895,"lo2":-89.0444,"dy":0.0017,"dx":0.0017,"nx":28,"ny":28,"refTime":"2023-07-19T03:00:00:Z","depth":"0","parameterNumber":2,"parameterNumberName":"U-component_of_CURRENTS"},"data":[0,0,0,0,0,0,0,0,0,0,0,0,0,0,0,0,0,0,0,0,0,0,0,0,0,0,0,0,0,0,0,0,0,0,0,0,0,0,0,0,0,0,0,0,0,0,0,0,0,0,0,0,0,0,0,0,0,0,0.4341,0.4343,0,0.4449,0.4449,0.4449,0.4332,0.4329,0.4326,0.4323,0.4469,0.4475,0.4482,0,0,0,0,0,0,0,0,0,0,0,0,0,0.4085,0.4088,0.434,0.4343,0.4346,0.4449,0.4449,0.4449,0.4333,0.4329,0.4325,0.4321,0.4467,0.4475,0.4483,0,0,0,0,0,0,0,0,0,0,0,0,0,0.4181,0.409,0.434,0.4311,0.431,0.4449,0.4449,0.4449,0.4333,0.4329,0.4324,0.432,0.4464,0.4474,0.4484,0.4641,0,0,0.4515,0.4519,0,0,0,0,0,0,0,0,0.4175,0.4188,0.4312,0.4313,0.4313,0.4385,0.4413,0.452,0.4335,0.4309,0.4323,0.4317,0.4458,0.4468,0.4477,0.4648,0.4654,0.4516,0.4522,0.4527,0.4529,0,0,0,0,0,0,0,0.4169,0.4184,0.4368,0.4316,0.4317,0.4312,0.4318,0.4432,0.4398,0.4311,0.4307,0.4343,0.4455,0.4467,0.448,0.4656,0.4516,0.4525,0.4531,0.4535,0.484,0.4842,0,0,0,0,0,0,0.4189,0.4178,0.4365,0.4373,0.4248,0.4321,0.4327,0.4355,0.4396,0.4401,0.4348,0.4338,0.4452,0.4468,0.4485,0.4708,0.4526,0.4536,0.4542,0.4838,0.4841,0.4843,0,0,0,0,0,0,0.4182,0.4204,0.4361,0.4289,0.431,0.4331,0.4363,0.436,0.438,0.4426,0.4427,0.4373,0.4449,0.4471,0.4597,0.4711,0.4541,0.455,0.4836,0.4839,0.4842,0.5133,0,0,0,0,0,0,0.4174,0.4201,0.4247,0.4291,0.4316,0.4519,0.4369,0.4366,0.4417,0.4405,0.4451,0.4457,0.4447,0.4582,0.4607,0.4722,0.4558,0.4833,0.4837,0.4841,0.5121,0.5146,0.5167,0,0,0,0,0,0.4165,0.4282,0.4247,0.4272,0.4371,0.4528,0.4543,0.4528,0.4423,0.4508,0.4481,0.4455,0.4619,0.4595,0.4623,0.4744,0.4832,0.4836,0.484,0.5111,0.5141,0.5166,0,0,0,0,0,0,0.425,0.4283,0.4246,0.4378,0.447,0.4515,0.4598,0.4559,0.46,0.4562,0.4536,0.4549,0.4705,0.4666,0.4638,0.4821,0.4703,0.4713,0.4898,0.4927,0.4949,0.4919,0.4566,0,0,0,0,0,0.428,0.4342,0.4401,0.4523,0.456,0.4567,0.4624,0.4614,0.4654,0.4661,0.4684,0.4681,0.475,0.4787,0.4854,0.4991,0.4957,0.5057,0.508,0.51,0.5084,0.5129,0.5157,0.4857,0.4857,0.4857,0,0,0.4358,0.4385,0.4428,0.4542,0.4581,0.4677,0.4588,0.4707,0.477,0.4685,0.4785,0.4814,0.4808,0.4951,0.5009,0.4932,0.5179,0.5106,0.5125,0.5096,0.5137,0.5167,0.5193,0.486,0.486,0.4859,0,0,0.4537,0.4556,0.4644,0.4712,0.48,0.4814,0.4853,0.4912,0.4921,0.5052,0.4974,0.5055,0.5163,0.5174,0.5187,0.5373,0.5324,0.5378,0.5472,0.552,0.5546,0.5568,0.563,0.5655,0.5362,0.5363,0.5363,0,0.4601,0.4708,0.4723,0.4817,0.4871,0.487,0.4972,0.5026,0.5118,0.5134,0.5119,0.5224,0.5266,0.5368,0.5421,0.544,0.5438,0.5392,0.5557,0.5577,0.5595,0.5652,0.5676,0.5377,0.5376,0.5374,0.5373,0,0.4837,0.4895,0.4977,0.5038,0.5127,0.5241,0.5286,0.5361,0.5355,0.5373,0.5501,0.555,0.5572,0.5629,0.5602,0.5733,0.5689,0.5618,0.5506,0.5645,0.5694,0.5714,0.5398,0.5393,0.5389,0.5385,0,0,0.4988,0.5093,0.5105,0.5108,0.5222,0.5297,0.5431,0.5526,0.5534,0.5666,0.5703,0.5868,0.5832,0.5836,0.5822,0.5873,0.6065,0.5802,0.5798,0.5896,0.6186,0.6059,0.6067,0.6026,0.6029,0.6032,0.6197,0,0.5128,0.5259,0.5311,0.5432,0.5478,0.5507,0.5606,0.5684,0.5732,0.5787,0.5846,0.5904,0.5924,0.5927,0.6009,0.6026,0.6117,0.6027,0.6002,0.6002,0.5899,0.6085,0.5792,0.5903,0.6215,0.6219,0.6221,0,0.5295,0.5341,0.5454,0.5486,0.5513,0.5599,0.5655,0.5752,0.5838,0.5869,0.5946,0.5957,0.6082,0.6048,0.6214,0.6149,0.6201,0.6226,0.6231,0.6005,0.5909,0.5794,0.5925,0.5722,0.625,0.6248,0.6246,0,0.5283,0.5412,0.5464,0.5496,0.5583,0.5627,0.568,0.5765,0.5796,0.5895,0.5907,0.6045,0.6076,0.6194,0.6279,0.6251,0.6427,0.638,0.6333,0.6325,0.6008,0.5965,0.5949,0.6513,0.6513,0.6512,0.6512,0,0.5342,0.5376,0.5445,0.5464,0.5512,0.5591,0.5641,0.5704,0.5774,0.5799,0.5916,0.5951,0.6107,0.621,0.6311,0.6389,0.6467,0.6387,0.6366,0.6105,0.607,0.5814,0.5722,0.6519,0.6517,0.6516,0.6515,0,0.529,0.5345,0.5392,0.5475,0.5492,0.5519,0.5587,0.5602,0.5693,0.5727,0.5756,0.5896,0.6033,0.618,0.6351,0.6386,0.6295,0.6495,0.6189,0.6128,0.5854,0.5788,0.5587,0.545,0.648,0.6478,0.6477,0,0.5263,0.5283,0.5354,0.5357,0.5388,0.5435,0.5444,0.5544,0.5559,0.5686,0.5683,0.5826,0.5891,0.6108,0.6202,0.6355,0.6193,0.6155,0.6048,0.5828,0.5742,0.5576,0.5464,0.5786,0.5779,0.5773,0.5768,0,0.5199,0.5226,0.5251,0.5257,0.5267,0.5276,0.5309,0.5303,0.5413,0.5441,0.5499,0.5565,0.5761,0.5755,0.5928,0.5997,0.5804,0.6035,0.5873,0.5258,0.5005,0.4862,0.5717,0.5715,0.572,0.5724,0.5727,0.5729,0.5128,0.5125,0.514,0.5135,0.5134,0.5085,0.5022,0.5062,0.5048,0.5034,0.5252,0.5267,0.5346,0.553,0.5556,0.5364,0.5463,0.5218,0.519,0.5071,0.4807,0.5561,0.5477,0.548,0.5483,0.5486,0.5489,0,0.5003,0.5002,0.5002,0.4959,0.4878,0.4931,0.4882,0.4776,0.4682,0.4789,0.482,0.4815,0.476,0.4814,0.4716,0.4552,0.4411,0.4416,0.4102,0.4066,0.4784,0.4618,0.4256,0.4256,0.4256,0.4257,0.4257,0.4257,0.4932,0.4871,0.4871,0.4701,0.4655,0.4468,0.4395,0.4272,0.4286,0.4145,0.4118,0.4205,0.4255,0.4173,0.3936,0.3846,0.3583,0.34,0.3487,0.3953,0.4024,0.4092,0.3914,0.3411,0.341,0.2586,0.2579,0.2574]},{"header":{"parameterUnit":"m.s-1","parameterCategory":2,"la1":30.2991,"la2":30.254,"lo1":-89.0895,"lo2":-89.0444,"dy":0.0017,"dx":0.0017,"nx":28,"ny":28,"refTime":"2023-07-19T03:00:00:Z","depth":"0","parameterNumber":3,"parameterNumberName":"V-component_of_CURRENTS"},"data":[0,0,0,0,0,0,0,0,0,0,0,0,0,0,0,0,0,0,0,0,0,0,0,0,0,0,0,0,0,0,0,0,0,0,0,0,0,0,0,0,0,0,0,0,0,0,0,0,0,0,0,0,0,0,0,0,0,0,0.0422,0.0423,0,0.0425,0.0424,0.0424,0.0335,0.0334,0.0332,0.033,0.0211,0.0209,0.0208,0,0,0,0,0,0,0,0,0,0,0,0,0,0.0306,0.0309,0.0422,0.0423,0.0423,0.0425,0.0424,0.0424,0.0335,0.0333,0.0331,0.033,0.0212,0.021,0.0208,0,0,0,0,0,0,0,0,0,0,0,0,0,0.033,0.0309,0.0422,0.0386,0.0383,0.0425,0.0424,0.0423,0.0336,0.0333,0.0331,0.0329,0.0212,0.021,0.0207,0.024,0,0,0.02,0.0199,0,0,0,0,0,0,0,0,0.0329,0.0333,0.039,0.0388,0.0386,0.0384,0.034,0.0359,0.0336,0.0345,0.033,0.0328,0.0265,0.0258,0.0254,0.0235,0.023,0.0199,0.0198,0.0197,0.0196,0,0,0,0,0,0,0,0.0327,0.0333,0.0415,0.0392,0.0389,0.0359,0.0359,0.0343,0.031,0.0344,0.034,0.0354,0.0261,0.0257,0.025,0.0228,0.02,0.0197,0.0196,0.0195,0.023,0.0232,0,0,0,0,0,0,0.0349,0.0332,0.0415,0.0416,0.036,0.0364,0.0363,0.038,0.0312,0.0303,0.0356,0.035,0.0262,0.0253,0.0246,0.0307,0.0197,0.0195,0.0193,0.0228,0.0231,0.0233,0,0,0,0,0,0,0.0346,0.0356,0.0415,0.0379,0.0386,0.0369,0.0389,0.0382,0.038,0.0325,0.031,0.0362,0.026,0.0249,0.0246,0.03,0.0193,0.0191,0.0225,0.0228,0.0232,0.0413,0,0,0,0,0,0,0.0343,0.0355,0.0378,0.0382,0.0389,0.0466,0.0392,0.0384,0.0396,0.0388,0.0326,0.0312,0.0257,0.025,0.0243,0.0295,0.0189,0.0222,0.0226,0.0231,0.0404,0.0422,0.0438,0,0,0,0,0,0.0339,0.0397,0.0379,0.0389,0.042,0.047,0.0471,0.0443,0.04,0.0425,0.0373,0.0314,0.0274,0.0251,0.0242,0.0294,0.0219,0.0225,0.023,0.0396,0.0418,0.0437,0,0,0,0,0,0,0.0375,0.0395,0.0374,0.0438,0.046,0.0458,0.0493,0.0461,0.0442,0.043,0.0347,0.0332,0.0348,0.03,0.0276,0.0317,0.0237,0.0241,0.0366,0.0386,0.0403,0.0447,0.0187,0,0,0,0,0,0.0393,0.0432,0.0445,0.0501,0.0518,0.0503,0.0518,0.0503,0.049,0.0478,0.0432,0.0387,0.0368,0.0359,0.0331,0.0362,0.0339,0.0388,0.0405,0.042,0.0451,0.0473,0.0496,0.0251,0.0251,0.0251,0,0,0.0425,0.0443,0.0465,0.051,0.0522,0.0566,0.0505,0.0555,0.0577,0.0471,0.0487,0.0446,0.0387,0.0415,0.0419,0.0381,0.0478,0.0427,0.0441,0.0463,0.0481,0.0505,0.0526,0.0255,0.0254,0.0254,0,0,0.0526,0.0527,0.0594,0.0609,0.0648,0.0639,0.0658,0.0665,0.0655,0.0675,0.0602,0.061,0.0565,0.0555,0.0535,0.0637,0.0565,0.0612,0.0742,0.0764,0.0784,0.0802,0.0809,0.0826,0.0626,0.0626,0.0626,0,0.0555,0.0633,0.0626,0.0687,0.0705,0.0675,0.0738,0.0739,0.0737,0.0751,0.0703,0.069,0.0642,0.0688,0.0719,0.0682,0.0666,0.0668,0.0789,0.0806,0.0821,0.0823,0.084,0.0635,0.0634,0.0633,0.0632,0,0.0706,0.0745,0.0794,0.0839,0.0863,0.092,0.0914,0.0936,0.0911,0.0908,0.0949,0.0904,0.0898,0.0889,0.0833,0.0923,0.0867,0.0806,0.0742,0.0857,0.0851,0.0865,0.0649,0.0645,0.0643,0.064,0,0,0.0805,0.0879,0.0887,0.0911,0.0937,0.0974,0.1024,0.107,0.1115,0.1112,0.1179,0.1166,0.1147,0.1127,0.1072,0.11,0.1194,0.1011,0.1008,0.1029,0.1234,0.1138,0.1142,0.1146,0.1149,0.1152,0.1188,0,0.0912,0.1032,0.1039,0.1125,0.1176,0.1148,0.1196,0.1226,0.1238,0.1296,0.1285,0.132,0.1233,0.1246,0.1267,0.1221,0.1238,0.119,0.111,0.1108,0.1018,0.1159,0.1092,0.1113,0.1201,0.1203,0.1205,0,0.1056,0.1099,0.1206,0.1246,0.1268,0.1308,0.1367,0.1411,0.1476,0.1492,0.1538,0.1514,0.158,0.1469,0.1482,0.145,0.1364,0.1314,0.1312,0.1174,0.1039,0.101,0.1134,0.0872,0.1225,0.1224,0.1222,0,0.1126,0.1214,0.1291,0.1302,0.1353,0.1389,0.1419,0.1479,0.1539,0.1627,0.1691,0.1729,0.1771,0.1707,0.1608,0.155,0.1601,0.1496,0.1326,0.1316,0.1222,0.1198,0.1095,0.149,0.149,0.149,0.149,0,0.1229,0.1283,0.1326,0.1354,0.144,0.1456,0.1562,0.1597,0.1695,0.1808,0.1799,0.1903,0.1832,0.1836,0.1703,0.1591,0.1674,0.1394,0.1341,0.128,0.1262,0.0993,0.0879,0.1491,0.1491,0.1491,0.1491,0,0.1295,0.1333,0.1401,0.1449,0.1475,0.153,0.1629,0.1713,0.1795,0.1948,0.1989,0.2074,0.2099,0.1992,0.1915,0.1721,0.1469,0.1518,0.1448,0.1385,0.0942,0.0842,0.0749,0.0669,0.1352,0.1351,0.1349,0,0.1347,0.1391,0.1447,0.1484,0.1503,0.1589,0.1661,0.1753,0.1855,0.2058,0.2149,0.2231,0.2325,0.2185,0.1895,0.1671,0.1444,0.1368,0.1236,0.0953,0.0802,0.0742,0.0679,0.1186,0.1183,0.1181,0.1179,0,0.1392,0.1404,0.144,0.1525,0.1593,0.1692,0.1804,0.191,0.2056,0.222,0.2447,0.2554,0.2421,0.2218,0.186,0.1644,0.1186,0.1308,0.1053,0.0716,0.0612,0.0497,0.111,0.1159,0.1161,0.1162,0.1163,0.1164,0.1397,0.1424,0.1472,0.156,0.1649,0.1792,0.1907,0.2069,0.2288,0.2572,0.2655,0.2877,0.2469,0.2015,0.1682,0.0954,0.1044,0.069,0.0611,0.0591,0.0459,0.1018,0.0967,0.0968,0.0969,0.097,0.097,0,0.1382,0.1427,0.1507,0.1615,0.1733,0.1788,0.2003,0.2159,0.2444,0.2739,0.2971,0.2905,0.2361,0.1787,0.0826,0.0331,0.0204,0.0069,-0.0039,-0.0054,0.0465,0.0393,0.0169,0.0169,0.017,0.017,0.017,0.017,0.1371,0.1426,0.1484,0.1666,0.1767,0.1962,0.2103,0.2362,0.2617,0.297,0.3144,0.3254,0.271,0.1052,-0.0087,-0.0316,-0.0579,-0.0647,-0.0728,-0.0438,-0.0387,-0.0338,-0.0436,-0.083,-0.0831,-0.1223,-0.1228,-0.1231]}],[{"header":{"parameterUnit":"m.s-1","parameterCategory":2,"la1":30.2991,"la2":30.254,"lo1":-89.0895,"lo2":-89.0444,"dy":0.0017,"dx":0.0017,"nx":28,"ny":28,"refTime":"2023-07-19T03:00:00:Z","depth":"2","parameterNumber":2,"parameterNumberName":"U-component_of_CURRENTS"},"data":[0,0,0,0,0,0,0,0,0,0,0,0,0,0,0,0,0,0,0,0,0,0,0,0,0,0,0,0,0,0,0,0,0,0,0,0,0,0,0,0,0,0,0,0,0,0,0,0,0,0,0,0,0,0,0,0,0,0,0.3207,0.3209,0,0.3356,0.3357,0.3358,0.3406,0.3406,0.3406,0.3407,0.3647,0.3653,0.366,0,0,0,0,0,0,0,0,0,0,0,0,0,0.2981,0.2984,0.3207,0.3209,0.3212,0.3356,0.3357,0.3358,0.3406,0.3406,0.3406,0.3407,0.3645,0.3653,0.366,0,0,0,0,0,0,0,0,0,0,0,0,0,0.3091,0.2985,0.3206,0.326,0.3266,0.3356,0.3357,0.3359,0.3406,0.3406,0.3407,0.3407,0.3643,0.3652,0.3661,0.3716,0,0,0.369,0.3694,0,0,0,0,0,0,0,0,0.3085,0.3098,0.3249,0.3256,0.3264,0.337,0.3366,0.3486,0.3406,0.3344,0.3407,0.3407,0.3569,0.3584,0.3598,0.3727,0.3737,0.3691,0.3697,0.3701,0.3703,0,0,0,0,0,0,0,0.3077,0.3092,0.3257,0.3252,0.3261,0.3283,0.3298,0.3388,0.3448,0.3349,0.3355,0.3386,0.3572,0.3589,0.3605,0.3741,0.3691,0.3699,0.3705,0.3708,0.3817,0.3814,0,0,0,0,0,0,0.3076,0.3085,0.3252,0.3262,0.3183,0.3287,0.3304,0.3329,0.3446,0.3465,0.3386,0.3388,0.3572,0.3593,0.3613,0.3793,0.3701,0.3709,0.3715,0.3819,0.3816,0.3813,0,0,0,0,0,0,0.307,0.3089,0.3246,0.3184,0.3207,0.3292,0.332,0.3332,0.3352,0.3474,0.3493,0.3394,0.3573,0.36,0.3675,0.3798,0.3714,0.3722,0.3823,0.3818,0.3815,0.4083,0,0,0,0,0,0,0.3063,0.3085,0.3116,0.3184,0.3211,0.334,0.3321,0.3335,0.3375,0.3379,0.3488,0.351,0.3576,0.366,0.3685,0.381,0.373,0.3826,0.3821,0.3816,0.4078,0.4088,0.4098,0,0,0,0,0,0.3054,0.3114,0.3116,0.3138,0.3245,0.3344,0.336,0.3414,0.3375,0.342,0.3442,0.3507,0.3642,0.3668,0.3696,0.3828,0.3829,0.3822,0.3816,0.4073,0.4086,0.4097,0,0,0,0,0,0,0.3037,0.3127,0.3131,0.3214,0.3286,0.3357,0.3419,0.3407,0.3455,0.3461,0.3509,0.3535,0.3641,0.3636,0.3661,0.3807,0.3732,0.3731,0.3917,0.393,0.394,0.3843,0.3737,0,0,0,0,0,0.3044,0.311,0.3186,0.3254,0.3296,0.3337,0.338,0.3414,0.3463,0.3482,0.3548,0.358,0.3633,0.3701,0.3744,0.3859,0.3832,0.3925,0.3936,0.3947,0.3865,0.3942,0.3957,0.3792,0.3793,0.3793,0,0,0.3052,0.3116,0.315,0.3256,0.3311,0.3357,0.3364,0.3457,0.3478,0.3507,0.3574,0.3636,0.365,0.3777,0.3823,0.3809,0.3984,0.3939,0.3951,0.386,0.3938,0.3956,0.3971,0.3788,0.3789,0.379,0,0,0.3094,0.3163,0.3218,0.3277,0.3382,0.3413,0.3428,0.3512,0.3548,0.3629,0.3627,0.3747,0.3824,0.3904,0.3932,0.3999,0.4018,0.3989,0.4031,0.4114,0.4131,0.4145,0.42,0.4217,0.4024,0.4024,0.4025,0,0.308,0.3166,0.3253,0.3309,0.3358,0.3417,0.3459,0.3504,0.3595,0.3642,0.3674,0.3792,0.3892,0.3993,0.4018,0.4054,0.4032,0.404,0.4144,0.4156,0.4166,0.4217,0.4233,0.4036,0.4035,0.4034,0.4033,0,0.3136,0.3211,0.3262,0.333,0.3395,0.347,0.3534,0.3606,0.3659,0.3712,0.3846,0.397,0.405,0.4118,0.4107,0.4213,0.4156,0.4157,0.4158,0.4203,0.4249,0.4262,0.4054,0.405,0.4046,0.4043,0,0,0.3119,0.3252,0.3284,0.3311,0.3417,0.3473,0.3541,0.3636,0.3687,0.3822,0.3911,0.4066,0.415,0.4164,0.4228,0.4289,0.4452,0.4234,0.4233,0.436,0.4577,0.4379,0.4373,0.4471,0.4473,0.4474,0.4611,0,0.3134,0.3207,0.3291,0.3366,0.341,0.3498,0.3559,0.3657,0.3765,0.3882,0.4025,0.4148,0.4159,0.427,0.4334,0.4429,0.4473,0.4408,0.4437,0.4437,0.4321,0.4377,0.4048,0.4122,0.4622,0.4624,0.4625,0,0.3209,0.323,0.3283,0.3393,0.3426,0.3477,0.3611,0.3684,0.3847,0.395,0.4092,0.4179,0.4356,0.4335,0.4511,0.4455,0.4476,0.4513,0.4523,0.4217,0.4256,0.4129,0.4124,0.4643,0.4642,0.4641,0.4639,0,0.3193,0.3281,0.3308,0.3334,0.3425,0.3494,0.3574,0.3728,0.3816,0.4012,0.4119,0.4289,0.4441,0.4497,0.4596,0.4574,0.4698,0.4748,0.4556,0.4546,0.4196,0.4148,0.4754,0.4754,0.4754,0.4753,0.4753,0,0.3221,0.3274,0.3304,0.3317,0.338,0.3488,0.3613,0.3722,0.3895,0.4008,0.4167,0.4273,0.4463,0.4562,0.4609,0.4616,0.476,0.4516,0.4553,0.4276,0.4236,0.4593,0.4572,0.4758,0.4757,0.4756,0.4755,0,0.3248,0.3272,0.3304,0.3354,0.3388,0.3451,0.3621,0.3694,0.3887,0.4041,0.4116,0.4318,0.4473,0.4571,0.4713,0.4653,0.4691,0.4609,0.4243,0.4228,0.4484,0.4475,0.4496,0.449,0.4484,0.448,0.4476,0,0.3248,0.3252,0.3296,0.3297,0.3331,0.343,0.3492,0.3683,0.3755,0.4046,0.4087,0.4289,0.435,0.4471,0.4432,0.4454,0.4554,0.4094,0.3983,0.4415,0.4452,0.4451,0.4449,0.3682,0.3672,0.3664,0.3658,0,0.3173,0.3211,0.3209,0.3214,0.3259,0.3324,0.3433,0.3486,0.3712,0.3831,0.3972,0.4058,0.4153,0.4022,0.3997,0.3958,0.409,0.3923,0.4515,0.376,0.3648,0.3684,0.3709,0.3586,0.3593,0.3598,0.3602,0.3605,0.3101,0.3078,0.3064,0.3097,0.3142,0.3191,0.3217,0.3312,0.3411,0.3493,0.3664,0.365,0.3712,0.3509,0.3416,0.3354,0.3637,0.3491,0.3518,0.3553,0.3394,0.3275,0.3115,0.3119,0.3123,0.3126,0.3129,0,0.2906,0.2921,0.2925,0.2935,0.2944,0.3057,0.3122,0.3039,0.3074,0.3159,0.3175,0.2891,0.2813,0.2913,0.2713,0.2688,0.2678,0.2582,0.258,0.2653,0.2717,0.2517,0.2006,0.2002,0.1999,0.1995,0,0,0.2806,0.2727,0.2752,0.2712,0.2769,0.2733,0.2766,0.2671,0.2648,0.2467,0.245,0.2547,0.2772,0.2331,0.2289,0.2128,0.2358,0.2023,0.2928,0.2995,0.3054,0.3247,0.302,0,0,0,0,0]},{"header":{"parameterUnit":"m.s-1","parameterCategory":2,"la1":30.2991,"la2":30.254,"lo1":-89.0895,"lo2":-89.0444,"dy":0.0017,"dx":0.0017,"nx":28,"ny":28,"refTime":"2023-07-19T03:00:00:Z","depth":"2","parameterNumber":3,"parameterNumberName":"V-component_of_CURRENTS"},"data":[0,0,0,0,0,0,0,0,0,0,0,0,0,0,0,0,0,0,0,0,0,0,0,0,0,0,0,0,0,0,0,0,0,0,0,0,0,0,0,0,0,0,0,0,0,0,0,0,0,0,0,0,0,0,0,0,0,0,0.0071,0.0071,0,0.0081,0.0081,0.008,0.0044,0.0043,0.0043,0.0042,-0.0141,-0.0145,-0.015,0,0,0,0,0,0,0,0,0,0,0,0,0,0.0001,0.0002,0.0071,0.0071,0.0072,0.0081,0.0081,0.008,0.0044,0.0043,0.0043,0.0042,-0.014,-0.0145,-0.015,0,0,0,0,0,0,0,0,0,0,0,0,0,0.0018,0.0002,0.0071,0.0059,0.0059,0.0081,0.008,0.008,0.0044,0.0043,0.0042,0.0042,-0.0138,-0.0144,-0.0151,-0.0174,0,0,-0.0171,-0.0174,0,0,0,0,0,0,0,0,0.0017,0.0019,0.006,0.006,0.006,0.0065,-0.0011,-0.0013,0.0044,0.0044,0.0042,0.0041,-0.0086,-0.0097,-0.0098,-0.0183,-0.0191,-0.0171,-0.0175,-0.0178,-0.018,0,0,0,0,0,0,0,0.0015,0.0019,0.0069,0.0061,0.0061,0.0048,0.0048,-0.0011,-0.0025,0.0044,0.0042,0.0053,-0.0088,-0.0092,-0.0103,-0.0194,-0.0171,-0.0177,-0.0181,-0.0184,-0.0249,-0.0247,0,0,0,0,0,0,0.0028,0.0018,0.0069,0.007,0.0042,0.005,0.0051,0.006,-0.002,-0.0029,0.0054,0.0051,-0.008,-0.0096,-0.011,-0.0182,-0.0178,-0.0184,-0.0188,-0.0251,-0.0248,-0.0246,0,0,0,0,0,0,0.0027,0.0032,0.0068,0.0048,0.0053,0.0053,0.0063,0.006,0.0055,-0.0009,-0.0024,0.0052,-0.0081,-0.0101,-0.014,-0.0188,-0.0187,-0.0193,-0.0254,-0.025,-0.0247,-0.0302,0,0,0,0,0,0,0.0024,0.0032,0.0037,0.005,0.0055,0.0081,0.0064,0.0061,0.0066,0.0063,-0.0016,-0.0033,-0.0084,-0.013,-0.0147,-0.0197,-0.0198,-0.0256,-0.0252,-0.0248,-0.0303,-0.0301,-0.0299,0,0,0,0,0,0.0022,0.0043,0.0037,0.0044,0.0064,0.0082,0.0082,0.0075,0.0067,0.0066,0.0032,-0.0031,-0.0115,-0.0134,-0.0154,-0.0208,-0.0258,-0.0253,-0.0248,-0.0304,-0.0301,-0.0299,0,0,0,0,0,0,0.0016,0.0043,0.0036,0.0064,0.0069,0.0078,0.0087,0.008,0.0056,0.0049,-0.0017,-0.0036,-0.0081,-0.0108,-0.0127,-0.0197,-0.0193,-0.0191,-0.0227,-0.0226,-0.0224,-0.027,-0.0204,0,0,0,0,0,0.0019,0.004,0.0055,0.0074,0.0082,0.0082,0.0088,0.0083,0.0071,0.006,0.0005,-0.0035,-0.0073,-0.012,-0.0147,-0.0207,-0.0196,-0.0239,-0.0237,-0.0237,-0.0277,-0.0205,-0.0202,-0.023,-0.023,-0.023,0,0,0.0019,0.0041,0.0049,0.0074,0.008,0.0078,0.0082,0.0097,0.0069,0.004,-0.0016,-0.0032,-0.0074,-0.0127,-0.0153,-0.017,-0.0224,-0.023,-0.0231,-0.0273,-0.02,-0.0198,-0.0196,-0.0226,-0.0227,-0.0228,0,0,0.0033,0.0053,0.0068,0.0073,0.0091,0.0088,0.0093,0.0093,0.0066,0.0027,0.0011,-0.0019,-0.0097,-0.0136,-0.0166,-0.0163,-0.0196,-0.0169,-0.0246,-0.0174,-0.0173,-0.0172,-0.0178,-0.0177,-0.0195,-0.0195,-0.0195,0,0.0033,0.005,0.0073,0.0082,0.0084,0.009,0.0088,0.0063,0.004,0.0015,0.0005,-0.0077,-0.0106,-0.0185,-0.0189,-0.0174,-0.0154,-0.0269,-0.0178,-0.0176,-0.0174,-0.018,-0.0178,-0.0197,-0.0197,-0.0196,-0.0196,0,0.0053,0.0054,0.0069,0.0073,0.0073,0.0083,0.0058,0.0043,0.0014,-0.0022,-0.0089,-0.0128,-0.0177,-0.0191,-0.0215,-0.0234,-0.0232,-0.0167,-0.0202,-0.0176,-0.0182,-0.018,-0.02,-0.0199,-0.0198,-0.0198,0,0,0.006,0.0082,0.0076,0.0073,0.007,0.0077,0.0036,0.0004,-0.0015,-0.0091,-0.0141,-0.0228,-0.0248,-0.0279,-0.0305,-0.0295,-0.0267,-0.0253,-0.0248,-0.0294,-0.0165,-0.0221,-0.0224,-0.0179,-0.0178,-0.0177,-0.0187,0,0.0059,0.0092,0.008,0.0064,0.0076,0.0058,0.0021,-0.0015,-0.0049,-0.0093,-0.0181,-0.0222,-0.0285,-0.0298,-0.0311,-0.0248,-0.0258,-0.0276,-0.0155,-0.0154,-0.0233,-0.0221,-0.0187,-0.0196,-0.0184,-0.0183,-0.0183,0,0.0041,0.0084,0.0095,0.0078,0.0077,0.0045,0.0023,-0.0012,-0.0076,-0.0096,-0.0184,-0.0221,-0.0294,-0.0289,-0.0289,-0.0294,-0.0256,-0.0227,-0.0222,-0.0265,-0.0203,-0.0209,-0.0191,-0.0178,-0.0179,-0.0179,-0.0179,0,0.0041,0.0052,0.0074,0.0074,0.0077,0.0045,0.0016,-0.0027,-0.0025,-0.0098,-0.0069,-0.0196,-0.0199,-0.0205,-0.0211,-0.0213,-0.0173,-0.013,-0.0178,-0.0183,-0.0132,-0.0135,-0.0105,-0.0105,-0.0105,-0.0105,-0.0105,0,0.0025,0.002,0.0073,0.0084,0.0094,0.0052,0.0034,0.0009,-0.0012,0.0039,-0.0081,-0.0038,-0.0155,-0.0162,-0.019,-0.0211,-0.0146,-0.0223,-0.0184,-0.0151,-0.0155,-0.0111,-0.0111,-0.0106,-0.0106,-0.0106,-0.0106,0,-0.0019,0.0021,0.0047,0.008,0.009,0.0077,0.0076,0.0094,0.0069,0.0144,0.014,0.0102,0.011,-0.0033,-0.002,-0.0141,-0.0158,-0.0169,-0.019,-0.0156,-0.0236,-0.0239,-0.0238,-0.024,-0.0241,-0.0243,-0.0244,0,-0.0027,-0.0001,0.0071,0.0117,0.0117,0.012,0.0156,0.0133,0.02,0.0281,0.0359,0.0336,0.0422,0.0279,0.0051,-0.0093,-0.0103,-0.0212,-0.0218,-0.0286,-0.0247,-0.0247,-0.0247,-0.0173,-0.0174,-0.0174,-0.0174,0,-0.0013,0.0004,0.0056,0.0171,0.0214,0.0279,0.0327,0.0417,0.0465,0.0606,0.0825,0.0895,0.0688,0.0528,0.0167,0.0058,-0.0213,-0.0227,-0.0219,-0.0162,-0.0229,-0.019,-0.0191,-0.0178,-0.0178,-0.0177,-0.0177,-0.0177,0.0009,0.0051,0.0152,0.0241,0.0322,0.0462,0.0552,0.0708,0.0916,0.1149,0.1175,0.129,0.0937,0.0538,0.0246,-0.016,-0.0138,-0.027,-0.0266,-0.0262,-0.0269,-0.0337,-0.0312,-0.0312,-0.0313,-0.0313,-0.0313,0,0.0082,0.0136,0.0235,0.0378,0.0507,0.0508,0.0718,0.0894,0.1242,0.14,0.1607,0.1351,0.1106,0.0699,0.0126,-0.0204,-0.0218,-0.0321,-0.0255,-0.025,-0.0246,-0.0251,-0.029,-0.029,-0.0291,-0.0291,0,0,0.0131,0.0246,0.0307,0.055,0.0637,0.0835,0.0973,0.1284,0.147,0.1719,0.1743,0.1701,0.1223,0.0815,0.0356,0.0043,-0.0023,-0.0027,-0.0014,0.0123,0.0132,-0.0194,-0.0195,0,0,0,0,0]}],[{"header":{"parameterUnit":"m.s-1","parameterCategory":2,"la1":30.2991,"la2":30.254,"lo1":-89.0895,"lo2":-89.0444,"dy":0.0017,"dx":0.0017,"nx":28,"ny":28,"refTime":"2023-07-19T03:00:00:Z","depth":"4","parameterNumber":2,"parameterNumberName":"U-component_of_CURRENTS"},"data":[0,0,0,0,0,0,0,0,0,0,0,0,0,0,0,0,0,0,0,0,0,0,0,0,0,0,0,0,0,0,0,0,0,0,0,0,0,0,0,0,0,0,0,0,0,0,0,0,0,0,0,0,0,0,0,0,0,0,0.1452,0.1453,0,0.1474,0.1473,0.1473,0.1412,0.1411,0.141,0.1409,0.1353,0.1353,0.1352,0,0,0,0,0,0,0,0,0,0,0,0,0,0.1434,0.1434,0.1452,0.1453,0.1454,0.1474,0.1473,0.1473,0.1412,0.1411,0.1409,0.1408,0.1353,0.1353,0.1352,0,0,0,0,0,0,0,0,0,0,0,0,0,0.1441,0.1434,0.1452,0.1431,0.143,0.1474,0.1473,0.1473,0.1413,0.1411,0.1409,0.1407,0.1353,0.1353,0.1352,0.1386,0,0,0.1351,0.135,0,0,0,0,0,0,0,0,0.144,0.144,0.1433,0.1433,0.1432,0.1445,0.1447,0.1442,0.1413,0.1412,0.1409,0.1406,0.1383,0.138,0.1378,0.1383,0.1381,0.1351,0.135,0.135,0.135,0,0,0,0,0,0,0,0.144,0.144,0.1453,0.1435,0.1434,0.1448,0.1445,0.1446,0.14,0.1412,0.1409,0.1424,0.138,0.1379,0.1377,0.138,0.1351,0.135,0.135,0.135,0.1574,0.158,0,0,0,0,0,0,0.145,0.1439,0.1452,0.1454,0.144,0.145,0.1447,0.1436,0.1402,0.1397,0.1425,0.1421,0.1381,0.1377,0.1374,0.1414,0.135,0.135,0.1349,0.1568,0.1575,0.1582,0,0,0,0,0,0,0.1449,0.145,0.1452,0.1455,0.1457,0.1452,0.1441,0.1438,0.1464,0.1414,0.1406,0.1458,0.1379,0.1375,0.1397,0.1411,0.1349,0.1349,0.156,0.157,0.1579,0.1492,0,0,0,0,0,0,0.1448,0.1448,0.1477,0.1454,0.1457,0.1465,0.1444,0.144,0.1477,0.1472,0.144,0.1431,0.1378,0.1398,0.1396,0.1409,0.1348,0.1553,0.1565,0.1576,0.1487,0.1497,0.1506,0,0,0,0,0,0.1446,0.145,0.1477,0.1481,0.1483,0.1466,0.1468,0.1455,0.1482,0.1476,0.1481,0.1433,0.1475,0.14,0.1398,0.141,0.1547,0.1561,0.1575,0.1482,0.1495,0.1506,0,0,0,0,0,0,0.1433,0.1446,0.1473,0.1477,0.1483,0.1458,0.1462,0.1491,0.1496,0.1511,0.147,0.1461,0.1511,0.1513,0.1433,0.1539,0.1523,0.1537,0.1454,0.1466,0.1475,0.1458,0.1348,0,0,0,0,0,0.1459,0.147,0.1481,0.1486,0.1489,0.1503,0.1515,0.1521,0.1518,0.152,0.1506,0.1536,0.1571,0.1553,0.1591,0.1604,0.1635,0.1644,0.1653,0.166,0.1663,0.1763,0.1777,0.1629,0.1629,0.1628,0,0,0.1445,0.1468,0.1468,0.149,0.1488,0.1465,0.1499,0.1516,0.1516,0.1517,0.1516,0.1574,0.1604,0.1625,0.1649,0.1606,0.172,0.1678,0.168,0.1681,0.1779,0.1792,0.1803,0.1638,0.1636,0.1635,0,0,0.1405,0.145,0.1441,0.1438,0.1475,0.1481,0.1501,0.1515,0.1537,0.1542,0.1601,0.1648,0.1656,0.1675,0.1686,0.1789,0.1799,0.1866,0.1828,0.1925,0.1934,0.1943,0.1957,0.1968,0.1826,0.1826,0.1825,0,0.1408,0.1394,0.1435,0.1411,0.1423,0.1485,0.1471,0.1485,0.1516,0.1572,0.1525,0.1678,0.1652,0.1748,0.176,0.1788,0.186,0.174,0.1922,0.1933,0.1943,0.1956,0.1969,0.1823,0.1823,0.1824,0.1824,0,0.1314,0.1339,0.1321,0.132,0.1339,0.1337,0.1372,0.1421,0.1463,0.15,0.1631,0.1637,0.1735,0.1746,0.173,0.1867,0.1899,0.1938,0.185,0.195,0.1961,0.1975,0.182,0.182,0.1821,0.1822,0,0,0.1232,0.1264,0.1262,0.1288,0.1311,0.1317,0.1343,0.1415,0.1493,0.1515,0.1609,0.1642,0.1749,0.1784,0.1858,0.1878,0.1933,0.1928,0.1934,0.1864,0.2135,0.1996,0.1998,0.2034,0.2038,0.2041,0.2091,0,0.1163,0.1153,0.1181,0.1176,0.1179,0.1256,0.1273,0.1362,0.1449,0.1546,0.163,0.1743,0.1745,0.1829,0.1863,0.1958,0.1984,0.1914,0.2119,0.2123,0.1923,0.2014,0.2052,0.2102,0.2105,0.2108,0.211,0,0.1053,0.1088,0.1096,0.118,0.1186,0.1191,0.1333,0.1369,0.1527,0.1611,0.1767,0.1869,0.1964,0.1939,0.2087,0.2075,0.2112,0.2125,0.213,0.2041,0.2013,0.2009,0.2136,0.2134,0.2132,0.213,0.2129,0,0.0992,0.1029,0.1073,0.1075,0.1151,0.1206,0.1261,0.1409,0.1505,0.1718,0.1808,0.1983,0.2077,0.2163,0.2194,0.2183,0.2319,0.2301,0.2208,0.2196,0.233,0.2321,0.2414,0.2414,0.2414,0.2414,0.2414,0,0.0903,0.0928,0.1062,0.1057,0.1127,0.1201,0.1326,0.1412,0.1595,0.1716,0.1887,0.2009,0.2153,0.2247,0.2254,0.2269,0.2388,0.2212,0.2218,0.2294,0.2281,0.2336,0.2326,0.2416,0.2415,0.2415,0.2415,0,0.0801,0.0884,0.0927,0.1045,0.1093,0.1144,0.1321,0.141,0.1607,0.1776,0.1849,0.2064,0.2175,0.2271,0.2384,0.2333,0.2349,0.2339,0.2379,0.2387,0.213,0.2118,0.2202,0.2198,0.2195,0.2192,0.2189,0,0.0737,0.077,0.0897,0.0951,0.1007,0.1132,0.1201,0.1393,0.151,0.1784,0.1833,0.2031,0.2152,0.2188,0.2293,0.2318,0.2311,0.23,0.2222,0.212,0.2119,0.2111,0.2103,0.2184,0.2183,0.2182,0.2181,0,0.064,0.0712,0.0748,0.085,0.0938,0.1037,0.117,0.1248,0.1477,0.1665,0.1808,0.1899,0.2026,0.2102,0.2173,0.2182,0.228,0.2262,0.2268,0.2195,0.2099,0.2099,0.2095,0.2169,0.2171,0.2172,0.2173,0,0.0572,0.0581,0.0665,0.0739,0.0838,0.0911,0.1003,0.1148,0.1279,0.1585,0.1622,0.182,0.2001,0.2034,0.2078,0.2096,0.2049,0.1976,0.1996,0.201,0.1929,0.1777,0.1761,0,0,0,0,0,0.0508,0.0531,0.0569,0.0639,0.0719,0.0788,0.0964,0.1079,0.1309,0.1359,0.1504,0.1613,0.1728,0.1828,0.1806,0.1963,0.2033,0.1926,0.1952,0.2103,0.2117,0.204,0,0,0,0,0,0,0.0493,0.0522,0.0523,0.0542,0.0575,0.0659,0.0763,0.0914,0.0986,0.1228,0.13,0.149,0.1616,0.1707,0.176,0.179,0.177,0.2056,0.2051,0.2095,0.2108,0.2119,0.2045,0,0,0,0,0]},{"header":{"parameterUnit":"m.s-1","parameterCategory":2,"la1":30.2991,"la2":30.254,"lo1":-89.0895,"lo2":-89.0444,"dy":0.0017,"dx":0.0017,"nx":28,"ny":28,"refTime":"2023-07-19T03:00:00:Z","depth":"4","parameterNumber":3,"parameterNumberName":"V-component_of_CURRENTS"},"data":[0,0,0,0,0,0,0,0,0,0,0,0,0,0,0,0,0,0,0,0,0,0,0,0,0,0,0,0,0,0,0,0,0,0,0,0,0,0,0,0,0,0,0,0,0,0,0,0,0,0,0,0,0,0,0,0,0,0,0.0065,0.0065,0,0.0072,0.0072,0.0072,0.0116,0.0117,0.0118,0.0119,0.0094,0.0092,0.009,0,0,0,0,0,0,0,0,0,0,0,0,0,0.0025,0.0026,0.0065,0.0065,0.0065,0.0072,0.0072,0.0072,0.0116,0.0117,0.0119,0.012,0.0094,0.0092,0.009,0,0,0,0,0,0,0,0,0,0,0,0,0,0.0037,0.0026,0.0065,0.0089,0.0091,0.0072,0.0072,0.0072,0.0115,0.0117,0.0119,0.012,0.0095,0.0092,0.009,0.004,0,0,0.0082,0.0081,0,0,0,0,0,0,0,0,0.0037,0.0039,0.0085,0.0087,0.0089,0.0096,0.0049,0.006,0.0115,0.0105,0.0119,0.0121,0.0091,0.0088,0.0085,0.0038,0.0037,0.0082,0.008,0.0079,0.0078,0,0,0,0,0,0,0,0.0036,0.0038,0.0067,0.0085,0.0088,0.0077,0.0081,0.0051,0.0087,0.0106,0.011,0.0111,0.0092,0.0088,0.0085,0.0037,0.0082,0.0079,0.0078,0.0077,-0.0024,-0.0025,0,0,0,0,0,0,0.0038,0.0038,0.0067,0.0067,0.0068,0.0076,0.0081,0.0091,0.0088,0.009,0.011,0.0113,0.0091,0.0088,0.0084,0.0102,0.0079,0.0076,0.0075,-0.0023,-0.0024,-0.0026,0,0,0,0,0,0,0.0038,0.0041,0.0067,0.0053,0.0056,0.0076,0.0087,0.0091,0.0095,0.0091,0.0093,0.0112,0.0093,0.0088,0.0079,0.0099,0.0075,0.0073,-0.0022,-0.0024,-0.0025,0.0089,0,0,0,0,0,0,0.0037,0.0041,0.0043,0.0053,0.0057,0.0086,0.0085,0.0089,0.0094,0.0098,0.0093,0.0092,0.0093,0.0083,0.0076,0.0095,0.0071,-0.002,-0.0023,-0.0025,0.0086,0.0091,0.0095,0,0,0,0,0,0.0035,0.0055,0.0043,0.0046,0.0061,0.0087,0.0088,0.0106,0.0092,0.0112,0.0099,0.0093,0.0064,0.008,0.0072,0.0091,-0.0019,-0.0022,-0.0024,0.0084,0.009,0.0095,0,0,0,0,0,0,0.0046,0.006,0.0049,0.0072,0.0084,0.0096,0.0109,0.01,0.0102,0.0105,0.0086,0.0085,0.0077,0.0051,0.0069,0.0047,0.0017,0.0012,0.0101,0.0107,0.0111,0.0139,0.0069,0,0,0,0,0,0.0042,0.006,0.0067,0.0085,0.0089,0.0086,0.0092,0.0107,0.011,0.0113,0.0102,0.0078,0.0055,0.0059,0.0032,0.0026,-0.0031,0.0023,0.0028,0.0032,0.0044,-0.0057,-0.0059,-0.0034,-0.0034,-0.0034,0,0,0.0055,0.006,0.0072,0.0087,0.0091,0.0125,0.0096,0.0123,0.0154,0.0105,0.0132,0.0088,0.0049,0.0053,0.0047,0.0044,-0.0003,0.0029,0.0034,0.0044,-0.006,-0.0062,-0.0064,-0.0036,-0.0035,-0.0035,0,0,0.0104,0.0088,0.0125,0.0136,0.015,0.0153,0.0159,0.0169,0.018,0.0192,0.0152,0.012,0.0101,0.0081,0.0065,0.0063,0.0011,0.0048,0.0119,0.0021,0.0019,0.0016,-0.0036,-0.0044,0.0067,0.0068,0.0068,0,0.0119,0.0158,0.0141,0.0178,0.0194,0.0168,0.0217,0.0222,0.023,0.0228,0.0222,0.0152,0.0117,0.0102,0.0115,0.0079,0.0026,0.0117,0.0031,0.0027,0.0022,-0.0032,-0.0042,0.0073,0.0072,0.0072,0.0071,0,0.0206,0.0226,0.0248,0.0284,0.03,0.0336,0.0341,0.0351,0.0339,0.0331,0.0308,0.0253,0.0214,0.019,0.0166,0.0118,0.0092,0.0039,0.0031,0.0027,-0.003,-0.0043,0.008,0.0078,0.0077,0.0075,0,0,0.028,0.0304,0.0316,0.0336,0.0357,0.0386,0.0423,0.0443,0.0457,0.0439,0.0439,0.0389,0.0334,0.0307,0.0248,0.018,0.0108,0.0117,0.0109,0.0092,-0.0076,-0.0045,-0.0057,0.0041,0.0039,0.0037,-0.0093,0,0.0355,0.0431,0.043,0.0504,0.0536,0.052,0.0551,0.056,0.0551,0.0541,0.0466,0.0439,0.0387,0.0364,0.0288,0.0135,0.0075,0.0151,-0.0094,-0.01,-0.0051,-0.0071,0.003,-0.0103,-0.0106,-0.0109,-0.011,0,0.0449,0.048,0.0564,0.0589,0.0604,0.065,0.0679,0.0709,0.0678,0.0663,0.062,0.0545,0.0456,0.0395,0.0179,0.023,0.0096,-0.0015,-0.0025,-0.0043,-0.0093,-0.0112,-0.0135,-0.0133,-0.0131,-0.0129,-0.0128,0,0.0507,0.0573,0.0637,0.0654,0.0688,0.0725,0.0749,0.0748,0.0772,0.0737,0.0725,0.0609,0.0539,0.0358,0.0149,0.015,-0.0104,-0.0145,-0.0232,-0.0231,-0.0266,-0.0263,-0.0303,-0.0303,-0.0303,-0.0302,-0.0302,0,0.058,0.0632,0.0674,0.0708,0.0787,0.0792,0.0871,0.0868,0.0867,0.088,0.0791,0.075,0.0518,0.0351,0.0162,-0.006,-0.01,-0.0216,-0.0269,-0.0214,-0.0204,-0.0274,-0.0269,-0.0307,-0.0306,-0.0305,-0.0304,0,0.0632,0.0662,0.0733,0.0787,0.0816,0.0879,0.0959,0.0996,0.0989,0.0998,0.0984,0.0835,0.0618,0.0396,0.0085,-0.0036,-0.0262,-0.0333,-0.022,-0.0266,-0.0321,-0.0309,-0.0439,-0.0439,-0.0439,-0.0439,-0.0439,0,0.0657,0.07,0.0789,0.0844,0.088,0.0977,0.1029,0.1061,0.1088,0.104,0.1018,0.0842,0.0718,0.032,0.0084,-0.0243,-0.0293,-0.038,-0.0372,-0.03,-0.0339,-0.0327,-0.0315,-0.0439,-0.0439,-0.0439,-0.0439,0,0.0688,0.0726,0.0778,0.0889,0.0972,0.1071,0.114,0.1163,0.1174,0.1171,0.1034,0.0847,0.061,0.0315,0.0076,-0.0167,-0.0309,-0.0383,-0.0384,-0.0378,-0.0303,-0.0338,-0.0327,-0.044,-0.044,-0.044,-0.044,0,0.07,0.0744,0.0814,0.0914,0.1028,0.1112,0.116,0.1162,0.1186,0.1115,0.1063,0.082,0.0681,0.0353,0.0118,-0.0095,-0.0153,-0.0212,-0.0224,-0.0226,-0.012,0.0009,-0.0075,0,0,0,0,0,0.0699,0.0746,0.0828,0.0934,0.1047,0.1114,0.1198,0.1225,0.1231,0.1139,0.1106,0.0883,0.0545,0.0387,0.0174,0.0115,-0.0183,-0.0137,-0.0255,-0.0442,-0.0442,-0.035,0,0,0,0,0,0,0.0706,0.0776,0.0812,0.0931,0.1004,0.1124,0.1184,0.1186,0.1129,0.1099,0.0905,0.0841,0.0494,0.0651,0.0165,0.0104,0.0006,-0.0292,-0.0296,-0.0442,-0.0442,-0.0441,-0.0348,0,0,0,0,0]}]]